TimePST,TemperatureF,Dew PointF,Humidity,Sea Level PressureIn,VisibilityMPH,Wind Direction,Wind SpeedMPH,Gust SpeedMPH,PrecipitationIn,Events,Conditions,WindDirDegrees,DateUTC
12:15 AM,50.0,50.0,100,30.01,10.0,Calm,Calm,-,N/A,,Partly Cloudy,0,2012-11-16 08:15:00
12:35 AM,50.0,50.0,100,30.01,10.0,South,6.9,-,N/A,,Clear,180,2012-11-16 08:35:00
12:55 AM,50.0,50.0,100,30.00,10.0,South,8.1,-,N/A,,Clear,190,2012-11-16 08:55:00
1:15 AM,50.0,50.0,100,30.00,10.0,Calm,Calm,-,N/A,,Clear,0,2012-11-16 09:15:00
1:35 AM,48.2,48.2,100,30.00,10.0,Calm,Calm,-,N/A,,Clear,0,2012-11-16 09:35:00
1:55 AM,50.0,50.0,100,30.00,10.0,Calm,Calm,-,N/A,,Clear,0,2012-11-16 09:55:00
2:15 AM,50.0,50.0,100,30.00,10.0,South,3.5,-,N/A,,Clear,190,2012-11-16 10:15:00
2:35 AM,48.2,48.2,100,29.99,10.0,WSW,3.5,-,N/A,,Partly Cloudy,240,2012-11-16 10:35:00
2:55 AM,50.0,50.0,100,29.99,10.0,South,4.6,-,N/A,,Clear,180,2012-11-16 10:55:00
3:15 AM,50.0,50.0,100,29.98,10.0,SSW,5.8,-,N/A,,Partly Cloudy,210,2012-11-16 11:15:00
3:35 AM,50.0,50.0,100,29.98,10.0,Calm,Calm,-,N/A,,Partly Cloudy,0,2012-11-16 11:35:00
3:55 AM,48.2,48.2,100,29.97,9.0,Calm,Calm,-,N/A,,Mostly Cloudy,0,2012-11-16 11:55:00
4:15 AM,50.0,50.0,100,29.97,10.0,Calm,Calm,-,N/A,,Overcast,0,2012-11-16 12:15:00
4:35 AM,51.8,51.8,100,29.98,5.0,South,4.6,-,N/A,,Overcast,190,2012-11-16 12:35:00
4:55 AM,51.8,51.8,100,29.98,8.0,SW,4.6,-,N/A,Rain,Light Rain,220,2012-11-16 12:55:00
5:15 AM,53.6,53.6,100,29.98,10.0,Calm,Calm,-,N/A,,Overcast,0,2012-11-16 13:15:00
5:35 AM,53.6,53.6,100,29.97,10.0,Calm,Calm,-,N/A,,Mostly Cloudy,0,2012-11-16 13:35:00
5:55 AM,50.0,50.0,100,29.97,8.0,Calm,Calm,-,N/A,,Mostly Cloudy,0,2012-11-16 13:55:00
6:15 AM,50.0,50.0,100,29.97,8.0,Calm,Calm,-,N/A,,Overcast,0,2012-11-16 14:15:00
6:35 AM,51.8,51.8,100,29.97,9.0,South,4.6,-,N/A,,Overcast,170,2012-11-16 14:35:00
6:55 AM,51.8,51.8,100,29.98,3.0,Calm,Calm,-,N/A,Rain,Light Rain,0,2012-11-16 14:55:00
7:15 AM,51.8,51.8,100,29.98,4.0,SSW,3.5,-,N/A,Rain,Light Rain,210,2012-11-16 15:15:00
7:35 AM,53.6,53.6,100,29.99,5.0,South,3.5,-,N/A,Rain,Light Rain,180,2012-11-16 15:35:00
7:55 AM,53.6,53.6,100,29.99,4.0,SW,5.8,-,0.01,Rain,Light Rain,220,2012-11-16 15:55:00
8:15 AM,53.6,53.6,100,30.00,2.5,SSW,5.8,-,0.01,Rain,Light Rain,200,2012-11-16 16:15:00
8:35 AM,53.6,53.6,100,30.00,5.0,SSE,3.5,-,0.01,Rain,Light Rain,150,2012-11-16 16:35:00
8:55 AM,53.6,53.6,100,30.00,5.0,Calm,Calm,-,0.01,Rain,Light Rain,0,2012-11-16 16:55:00
9:15 AM,53.6,53.6,100,30.00,7.0,Calm,Calm,-,N/A,,Overcast,0,2012-11-16 17:15:00
9:35 AM,53.6,53.6,100,30.01,5.0,Calm,Calm,-,N/A,Rain,Light Rain,0,2012-11-16 17:35:00
9:55 AM,55.4,55.4,100,30.01,4.0,SSW,3.5,-,N/A,,Overcast,210,2012-11-16 17:55:00
10:15 AM,55.4,55.4,100,30.01,3.0,Calm,Calm,-,N/A,,Overcast,0,2012-11-16 18:15:00
10:35 AM,55.4,55.4,100,30.00,5.0,Calm,Calm,-,N/A,,Overcast,0,2012-11-16 18:35:00
10:55 AM,55.4,55.4,100,30.00,5.0,ESE,3.5,-,N/A,,Overcast,120,2012-11-16 18:55:00
11:15 AM,57.2,55.4,94,29.99,6.0,Calm,Calm,-,N/A,,Overcast,0,2012-11-16 19:15:00
11:35 AM,57.2,55.4,94,29.99,7.0,Calm,Calm,-,N/A,,Overcast,0,2012-11-16 19:35:00
11:55 AM,59.0,55.4,88,29.98,8.0,East,6.9,-,N/A,,Overcast,100,2012-11-16 19:55:00
12:15 PM,59.0,53.6,82,29.98,5.0,SE,6.9,-,N/A,,Haze,130,2012-11-16 20:15:00
12:35 PM,59.0,55.4,88,29.96,5.0,SE,4.6,-,N/A,,Overcast,140,2012-11-16 20:35:00
12:55 PM,59.0,51.8,77,29.96,5.0,East,5.8,-,N/A,,Haze,100,2012-11-16 20:55:00
1:15 PM,59.0,51.8,77,29.95,6.0,ESE,6.9,-,N/A,,Haze,110,2012-11-16 21:15:00
1:35 PM,60.8,53.6,77,29.94,5.0,ESE,8.1,-,N/A,,Haze,120,2012-11-16 21:35:00
1:55 PM,59.0,53.6,82,29.94,5.0,SSE,4.6,-,N/A,,Haze,160,2012-11-16 21:55:00
2:15 PM,59.0,53.6,82,29.94,5.0,SSE,5.8,-,N/A,,Haze,160,2012-11-16 22:15:00
2:35 PM,59.0,55.4,88,29.94,5.0,South,3.5,-,N/A,,Haze,170,2012-11-16 22:35:00
2:55 PM,57.2,57.2,100,29.94,1.8,SE,4.6,-,N/A,Rain,Light Rain,130,2012-11-16 22:55:00
3:15 PM,57.2,57.2,100,29.94,1.2,ESE,4.6,-,N/A,Rain,Light Rain,120,2012-11-16 23:15:00
3:35 PM,55.4,55.4,100,29.94,0.8,SE,5.8,-,N/A,Rain,Light Rain,130,2012-11-16 23:35:00
3:55 PM,55.4,55.4,100,29.94,0.5,ESE,3.5,-,0.01,Rain,Light Rain,110,2012-11-16 23:55:00
4:15 PM,55.4,55.4,100,29.93,0.5,Calm,Calm,-,N/A,Rain,Light Rain,0,2012-11-17 00:15:00
4:35 PM,55.4,55.4,100,29.93,1.2,Calm,Calm,-,N/A,Rain,Light Rain,0,2012-11-17 00:35:00
4:55 PM,55.4,55.4,100,29.93,1.2,SW,3.5,-,0.01,Rain,Light Rain,220,2012-11-17 00:55:00
5:15 PM,55.4,55.4,100,29.92,2.0,South,3.5,-,N/A,Rain,Light Rain,170,2012-11-17 01:15:00
5:35 PM,55.4,55.4,100,29.92,3.0,Calm,Calm,-,N/A,Rain,Light Rain,0,2012-11-17 01:35:00
5:55 PM,55.4,55.4,100,29.92,2.0,Calm,Calm,-,0.02,Rain,Light Rain,0,2012-11-17 01:55:00
6:15 PM,55.4,55.4,100,29.92,3.0,Calm,Calm,-,N/A,Rain,Light Rain,0,2012-11-17 02:15:00
6:35 PM,55.4,55.4,100,29.91,2.5,ESE,3.5,-,N/A,Rain,Light Rain,110,2012-11-17 02:35:00
6:55 PM,55.4,55.4,100,29.91,3.0,Calm,Calm,-,0.01,Rain,Light Rain,0,2012-11-17 02:55:00
7:15 PM,55.4,55.4,100,29.91,3.0,Calm,Calm,-,N/A,Rain,Light Rain,0,2012-11-17 03:15:00
7:55 PM,55.4,55.4,100,29.90,2.5,Calm,Calm,-,0.02,Rain,Light Rain,0,2012-11-17 03:55:00
8:15 PM,55.4,55.4,100,29.90,2.5,Calm,Calm,-,0.01,Rain,Light Rain,0,2012-11-17 04:15:00
8:35 PM,55.4,55.4,100,29.90,1.5,SE,3.5,-,0.02,Rain,Light Rain,130,2012-11-17 04:35:00
8:55 PM,55.4,55.4,100,29.90,2.0,SE,3.5,-,0.03,Rain,Light Rain,130,2012-11-17 04:55:00
9:15 PM,55.4,55.4,100,29.90,1.5,Calm,Calm,-,0.01,Rain,Light Rain,0,2012-11-17 05:15:00
9:35 PM,55.4,55.4,100,29.91,1.5,Calm,Calm,-,0.02,Rain,Light Rain,0,2012-11-17 05:35:00
9:55 PM,55.4,55.4,100,29.90,1.2,Calm,Calm,-,0.07,Rain,Light Rain,0,2012-11-17 05:55:00
10:15 PM,55.4,55.4,100,29.90,1.2,ESE,6.9,-,0.01,Rain,Light Rain,120,2012-11-17 06:15:00
10:35 PM,55.4,55.4,100,29.89,1.5,SE,5.8,-,0.02,Rain,Light Rain,130,2012-11-17 06:35:00
10:55 PM,55.4,55.4,100,29.89,1.5,South,8.1,-,0.02,Rain,Light Rain,180,2012-11-17 06:55:00
11:15 PM,55.4,55.4,100,29.89,1.5,South,4.6,-,N/A,Rain,Light Rain,170,2012-11-17 07:15:00
11:35 PM,55.4,55.4,100,29.89,1.5,SSE,5.8,-,0.01,Rain,Light Rain,150,2012-11-17 07:35:00
11:55 PM,53.6,53.6,100,29.88,1.0,SE,3.5,-,0.04,Rain,Light Rain,130,2012-11-17 07:55:00